Satellite: AO-40 Catalog number: 26609 Epoch time: 02194.75813657 Element set: 239 Inclination: 7.5236 deg RA of node: 105.1052 deg Eccentricity: 0.7920989 Arg of perigee: 68.4840 deg Mean anomaly: 353.4683 deg Mean motion: 1.25596649 rev/day Decay rate: -1.72000e-06 rev/day^2 Epoch rev: 782 Checksum: 327